Theta_e
319 316 317 318 318 317 317 319 320 322 322 323 323 322 322 322 322 322 324 325 324 324
319 317 318 319 319 318 318 320 321 322 322 323 323 323 323 323 322 324 324 325 325 326
320 319 319 319 318 319 320 322 321 322 322 323 323 323 324 325 327 326 326 327 327 326
321 321 319 320 319 320 320 321 321 322 322 322 322 323 325 326 327 326 325 327 325 325
322 322 320 320 320 320 320 322 322 323 322 322 322 324 325 325 326 326 325 325 324 323
322 320 320 319 320 321 321 322 323 323 323 323 323 322 323 325 325 326 326 326 325 324
320 321 320 320 321 321 323 323 323 323 323 323 323 322 321 323 324 325 326 326 325 325
320 321 320 321 321 322 323 323 324 324 323 324 323 323 322 322 324 325 325 326 325 326
321 322 321 321 321 322 323 323 324 324 324 323 323 304 311 320 323 326 326 324 323 323
322 322 319 321 321 320 320 321 322 323 323 323 320 302 304 312 325 324 324 324 324 324
321 322 320 320 319 316 318 319 320 320 322 321 318 302 303 310 326 324 325 326 326 324
320 320 319 319 316 315 316 316 317 318 321 323 317 301 302 317 325 324 324 326 325 324
320 320 318 318 316 315 315 316 316 317 321 314 319 300 303 316 323 321 322 322 321 311
319 318 319 317 316 315 314 315 315 314 315 319 317 312 299 306 322 320 320 320 319 321
Wind_Speed
4 2 1 1 1 1 1 2 3 3 2 3 4 3 3 2 3 3 3 5 4 3
4 4 2 2 2 2 2 2 3 2 3 3 4 4 4 3 4 4 4 5 6 5
5 4 3 3 3 4 2 2 3 2 3 4 4 6 5 4 4 5 4 4 6 6
4 4 4 3 3 3 3 3 3 3 4 4 5 6 5 4 4 6 7 6 7 8
4 4 4 3 4 3 3 2 3 4 5 5 6 6 7 5 5 6 7 8 9 9
4 4 4 4 4 4 4 3 4 4 6 6 6 7 6 8 6 6 6 8 9 9
5 4 4 4 4 5 4 4 4 4 6 6 6 7 7 8 6 6 6 7 8 8
5 5 4 4 5 5 4 4 5 6 6 6 6 5 9 8 8 6 7 8 8 7
6 5 4 4 5 4 4 5 5 5 7 6 4 8 9 10 8 6 7 8 8 9
6 6 5 4 4 5 4 4 5 4 5 5 6 8 9 10 6 6 7 8 9 8
6 7 5 5 4 4 3 4 4 4 5 7 5 10 9 10 8 7 7 8 10 11
6 7 7 6 5 3 4 3 2 4 5 7 5 8 9 9 7 7 7 7 9 9
7 9 8 7 6 3 3 3 3 5 3 6 6 4 8 7 5 7 5 5 5 10
6 8 8 7 4 5 5 5 4 5 4 4 4 5 6 8 4 6 6 5 4 4
Wind_Direction
180 148 150 224 190 143 168 147 133 119 131 119 108 139 156 133 142 146 127 127 113 197
178 156 156 161 125 104 110 140 130 140 105 82 84 99 107 113 113 117 111 126 145 144
179 154 170 158 125 121 121 113 131 125 99 87 89 94 99 108 114 113 110 105 112 105
163 153 173 144 139 134 125 138 150 128 114 107 103 103 109 110 119 112 109 104 109 106
154 141 169 147 147 137 125 143 152 131 114 113 110 111 118 104 98 107 111 107 105 103
147 143 149 152 138 123 122 121 114 118 120 126 122 114 105 108 97 96 100 109 113 120
150 150 143 143 122 118 123 124 115 115 116 115 113 112 111 108 103 85 92 93 101 119
137 124 125 130 120 125 121 123 126 118 118 118 111 116 116 115 112 91 94 98 95 100
131 127 129 134 133 127 119 116 121 121 131 131 122 133 119 126 129 114 115 108 104 106
140 128 136 136 125 122 122 127 128 132 136 127 130 131 128 124 126 109 105 115 121 117
151 140 138 123 118 112 102 129 136 140 125 129 135 145 123 116 112 108 112 126 125 127
158 149 147 141 145 119 117 121 153 116 132 127 134 138 126 111 113 107 101 108 119 127
157 155 161 154 156 130 121 128 126 113 131 131 147 158 133 116 111 106 104 81 93 92
163 162 163 150 153 136 124 115 106 104 114 129 150 171 168 138 126 127 130 136 143 157